Hourly Data Report for October 17, 2013

All times are specified in Local Standard Time (LST). Add 1 hour to adjust for Daylight Saving Time where and when it is observed.

ARVIAT A
NUNAVUT

61°05'38.000" N
94°04'18.000" W
10.40 m
2300427
71174
YEK

Download Data

Hourly Data (October 2013)
Hourly Data Report for October 17, 2013
Temp Definition
°C
Dew Point Temp Definition
°C
Rel Hum Definition
%
Wind Dir Definition
10's deg

Wind Spd Definition
km/h
Visibility Definition
km
Stn Press Definition
kPa
Hmdx Definition


Wind Chill Definition


Weather Definition


TIME
00:00 Legend Double Dagger -2.9 -3.5 96 33 37 11.3 100.01   -11 LegendNANA
01:00 Legend Double Dagger -3.3 -4.0 95 33 35 16.1 100.01   -11 LegendNANA
02:00 Legend Double Dagger -3.5 -4.3 95 33 42 16.1 99.99   -12 LegendNANA
03:00 Legend Double Dagger -3.8 -4.9 92 33 45 8.1 99.99   -13 LegendNANA
04:00 Legend Double Dagger -4.1 -4.6 96 33 39 16.1 100.03   -13 LegendNANA
05:00 Legend Double Dagger -4.3 -4.7 97 32 37 16.1 100.04   -13 LegendNANA
06:00 Legend Double Dagger -4.6 -4.9 98 32 35 16.1 100.04   -13 LegendNANA
07:00 Legend Double Dagger -4.4 -5.2 94 33 32 16.1 100.03   -12 LegendNANA
08:00 Legend Double Dagger -4.4 -5.2 94 32 32 16.1 100.03   -12 LegendNANA
09:00 Legend Double Dagger -3.8 -5.4 89 32 33 16.1 100.01   -12 LegendNANA
10:00 Legend Double Dagger -3.8 -5.0 91 32 35 16.1 100.01   -12 LegendNANA
11:00
12:00
13:00 Legend Double Dagger -3.4 -5.0 89 30 32 LegendMM 100.01   -11 LegendNANA
14:00 Legend Double Dagger -3.4 -4.8 90 29 30 16.1 100.00   -11 LegendNANA
15:00 Legend Double Dagger -3.1 -4.5 90 29 22 16.1 100.00   -9 LegendNANA
16:00 Legend Double Dagger -2.3 -3.1 94 27 17 16.1 99.99   -8 LegendNANA
17:00 Legend Double Dagger -1.8 -2.5 95 25 15 16.1 100.00   -7 LegendNANA
18:00 Legend Double Dagger -1.5 -1.9 97 24 18 16.1 99.98   -7 LegendNANA
19:00 Legend Double Dagger -0.8 -1.2 97 26 22 16.1 99.98   -7 LegendNANA
20:00 Legend Double Dagger -0.3 -0.9 96 25 18 16.1 99.96   -5 LegendNANA
21:00 Legend Double Dagger -0.3 -0.4 99 26 17 16.1 99.92   -5 LegendNANA
22:00 Legend Double Dagger -0.3 -0.5 99 32 32 4.8 99.92   -7 LegendNANA
23:00 Legend Double Dagger -1.1 -1.6 96 32 30 16.1 99.97   -8 LegendNANA

Notes on Data Quality.

Legend

  • E = Estimated
  • M = Missing
  • NA = Not Available
  • ‡ = Partner data that is not subject to review by the National Climate Archives
Date modified: